Regional Weather Roundup
Issued by NWS Mt. Holly, NJ

Home | Current Version | Previous Version | Text Only | Print | Product List | Glossary On
Versions: 1 2 3 4 5 6 7 8 9 10 11 12 13 14 15 16 17 18 19 20 21 22 23 24 25 26 27 28 29 30 31 32 33 34 35 36 37 38 39 40 41 42 43 44 45 46 47 48 49 50
000
ASUS41 KPHI 011410
RWRPHI

REGIONAL WEATHER ROUNDUP
NATIONAL WEATHER SERVICE MOUNT HOLLY NJ
1000 AM EDT MON SEP 01 2014

NOTE:  "FAIR" INDICATES FEW OR NO CLOUDS BELOW 12,000 FEET WITH NO
SIGNIFICANT WEATHER AND/OR OBSTRUCTIONS TO VISIBILITY.

 * = STATION DOES NOT REPORT PRECIPITATION (E.G. RAIN, SNOW, ETC.)
        OR FOG.

NJZ015>026-011500-
SOUTHERN NEW JERSEY

CITY           SKY/WX    TMP DP  RH WIND       PRES   REMARKS
POMONA         PTSUNNY   78  73  84 SW7       30.03S
RIO GRANDE*    CLOUDY    79  72  78 SW8       30.04F
MILLVILLE      CLOUDY    78  74  87 VRB3      30.03F
WRIGHTSTOWN    CLOUDY    75  73  94 SW2       30.00S
MOUNT HOLLY    CLOUDY    76  72  87 W5        30.02S
TRENTON        CLOUDY    76  73  91 SW5       30.02R

$$
NJZ001>014-011500-
NORTHERN NEW JERSEY

CITY           SKY/WX    TMP DP  RH WIND       PRES   REMARKS
SUSSEX         PTSUNNY   78  71  79 CALM      30.01S
ANDOVER*         N/A     77  71  82 VRB3      30.02F
MORRISTOWN     PTSUNNY   81  72  74 CALM      30.01S
NEWARK         PTSUNNY   83  72  69 SW3       30.00S
TETERBORO      MOSUNNY   81  71  71 CALM      29.99S
CALDWELL       SUNNY     80  69  69 CALM      30.00F
SOMERVILLE     PTSUNNY   79  73  82 SW3       29.99F
ALLAIRE*       CLOUDY    73  70  88 SW6       30.02S
TOMS RIVER*    CLOUDY    79  73  83 W6        30.02S

$$
PAZ043-044-047-054-055-060>062-066>071-011500-
EASTERN PENNSYLVANIA

CITY           SKY/WX    TMP DP  RH WIND       PRES   REMARKS
PHILADELPHIA   CLOUDY    76  73  91 SW5       30.03R FOG
NORTH PHILA    CLOUDY    78  71  79 CALM      30.04S
BLUE BELL      PTSUNNY   79  73  83 CALM      30.03S
DOYLESTOWN     CLOUDY    74  72  93 CALM      30.02S
QUAKERTOWN*    CLOUDY    77  73  88 MISG      30.03F
POTTSTOWN      CLOUDY    77  71  82 CALM      30.04S
LANCASTER      CLOUDY    77  72  84 SW3       30.03S HAZE
COATESVILLE    PTSUNNY   77  77 100 S3        30.05S
READING        PTSUNNY   78  72  81 CALM      30.01F
ALLENTOWN      CLOUDY    78  70  76 CALM      30.02F
MOUNT POCONO   CLOUDY    74  67  78 SW3       30.07F
HAZLETON       CLOUDY    73  68  83 S3        30.09S
WILKES BARRE   PTSUNNY   76  69  79 W5        30.03S

$$
DEZALL-MDZ008-012-015-019-020-011500-
DELAWARE AND EASTERN MARYLAND

CITY           SKY/WX    TMP DP  RH WIND       PRES   REMARKS
WILMINGTON     CLOUDY    77  74  90 SW5       30.03S
DOVER          CLOUDY    78  78 100 SW7       30.02S
GEORGETOWN     LGT RAIN  79  75  87 S10       30.04F
EASTON         PTSUNNY   81  81 100 CALM      30.06S HX  91
PATUXENT       CLOUDY    78  74  87 S9        30.02S
OCEAN CITY     PTSUNNY   82  74  76 SW9       30.05S
WALLOPS ISLAND PTSUNNY   84  76  76 W7        30.06S HX  93
CAMBRIDGE      CLOUDY    79  72  78 CALM      30.02S
SALISBURY      PTSUNNY   83  75  77 S6        30.04S HX  90

$$
PAZ001-021-NYZ056-072-MDZ011-DCZ001-011500-
OTHER NEARBY LOCATIONS

CITY           SKY/WX    TMP DP  RH WIND       PRES   REMARKS
HARRISBURG     CLOUDY    78  71  79 CALM      30.02S
STATE COLLEGE  PTSUNNY   73  70  88 CALM      30.05S
WILLIAMSPORT   CLOUDY    72  68  87 CALM      30.01S FOG
BINGHAMTON     CLOUDY    70  67  90 SE3       30.04S
NEW YORK CITY  MOSUNNY   79  70  74 CALM      30.03S
BALTIMORE      PTSUNNY   80  73  79 W5        30.02F
WASHINGTON DC  MOSUNNY   82  73  74 SW7       30.02F

$$


USA.gov is the U.S. government's official web portal to all federal, state and local government web resources and services.